Lancaster, PA

10:53 AM EST on December 14, 2017 (GMT -0500)
Lancaster

Weather History for KLNS - January, 2000

Change the Weather History Date:

Wednesday, January 12, 2000

  Actual Average Record
Temperature  
Mean Temperature 37 °F -  
Max Temperature 44 °F 35 °F 64 °F (2017)
Min Temperature 30 °F 18 °F -2 °F (1981)
Degree Days  
Heating Degree Days 28    
Moisture  
Dew Point 23 °F    
Average Humidity 59    
Maximum Humidity 82    
Minimum Humidity 35    
Precipitation  
Precipitation 0.00 in - - ()
Sea Level Pressure  
Sea Level Pressure 30.12 in    
Wind  
Wind Speed 13 mph (West)    
Max Wind Speed 20 mph    
Max Gust Speed 20 mph    
Visibility 10 miles    
Events      
Averages and records for this station are not official NWS values.
T = Trace of Precipitation, MM = Missing Value Source: NWS Daily Summary

Daily Weather History Graph

Daily Weather History Graph

Search for Another Location

Airport or City:

Trip Planner

Search our weather history database for the weather conditions in past years. The results will help you decide how hot, cold, wet, or windy it might be!

Date:

Astronomy

Jan. 12, 2000 Rise Set
Actual Time 7:26 AM EST 5:00 PM EST
Civil Twilight 6:56 AM EST 5:30 PM EST
Nautical Twilight 6:23 AM EST 6:03 PM EST
Astronomical Twilight 5:50 AM EST 6:36 PM EST
Moon 10:56 AM EST (1/12) 10:54 PM EST (1/12)
Length of Visible Light 10h 33m
Length of Day
9h 33m
Waxing Crescent, 31% of the Moon is Illuminated
Jan 12
Waxing Crescent
Jan 14
First Quarter
Jan 20
Full
Jan 28
Last Quarter
Feb 5
New

Hourly Weather History & Observations

Time (EST) Temp. Windchill Dew Point Humidity Pressure Visibility Wind Dir Wind Speed Gust Speed Precip Events Conditions
12:53 AM 37.0 °F 26.7 °F 23.0 °F 57% 29.97 in 10.0 mi West 19.6 mph - N/A   Mostly Cloudy
1:53 AM 37.9 °F 28.5 °F 25.0 °F 60% 30.00 in 10.0 mi West 17.3 mph - N/A   Overcast
2:53 AM 37.0 °F 27.7 °F 25.0 °F 62% 30.03 in 10.0 mi West 16.1 mph - N/A   Overcast
3:53 AM 36.0 °F 26.7 °F 24.1 °F 62% 30.06 in 10.0 mi West 15.0 mph - N/A   Clear
4:53 AM 35.1 °F 26.4 °F 25.0 °F 67% 30.08 in 10.0 mi West 12.7 mph - N/A   Clear
5:53 AM 34.0 °F 25.0 °F 24.1 °F 67% 30.10 in 10.0 mi West 12.7 mph - N/A   Clear
6:53 AM 33.1 °F 24.9 °F 23.0 °F 66% 30.13 in 10.0 mi West 10.4 mph - N/A   Clear
7:53 AM 30.0 °F 22.4 °F 21.0 °F 69% 30.15 in 10.0 mi WNW 8.1 mph - N/A   Clear
8:53 AM 36.0 °F 28.5 °F 23.0 °F 59% 30.19 in 10.0 mi West 10.4 mph - N/A   Clear
9:53 AM 37.9 °F 28.9 °F 21.9 °F 53% 30.21 in 10.0 mi West 16.1 mph - N/A   Clear
10:53 AM 39.9 °F 31.8 °F 21.0 °F 47% 30.21 in 10.0 mi West 15.0 mph - N/A   Clear
11:50 AM - - - N/A% 30.15 in 15.0 mi West 17.3 mph - N/A   Scattered Clouds
12:53 PM 43.0 °F 35.4 °F 19.9 °F 40% 30.14 in 10.0 mi West 16.1 mph 19.6 mph N/A   Clear
2:53 PM 44.1 °F 37.1 °F 18.0 °F 35% 30.15 in 10.0 mi West 15.0 mph - N/A   Clear
3:53 PM 44.1 °F 38.6 °F 19.0 °F 37% 30.15 in 10.0 mi West 10.4 mph - N/A   Clear
4:53 PM 41.0 °F 36.4 °F 19.9 °F 43% 30.16 in 10.0 mi WSW 6.9 mph - N/A   Clear
5:53 PM 37.0 °F 34.5 °F 21.9 °F 54% 30.17 in 10.0 mi West 3.5 mph - N/A   Clear
6:53 PM 36.0 °F - 21.0 °F 55% 30.16 in 10.0 mi Calm Calm - N/A   Clear
7:53 PM 32.0 °F - 26.1 °F 79% 30.15 in 10.0 mi Calm Calm - N/A   Clear
8:53 PM 34.0 °F - 21.0 °F 59% 30.16 in 10.0 mi Calm Calm - N/A   Clear
9:53 PM 32.0 °F 28.7 °F 25.0 °F 75% 30.14 in 10.0 mi SE 3.5 mph - N/A   Scattered Clouds
10:53 PM 33.1 °F 27.7 °F 26.1 °F 75% 30.11 in 10.0 mi East 5.8 mph - N/A   Overcast
11:53 PM 33.1 °F 26.9 °F 28.0 °F 82% 30.07 in 8.0 mi East 6.9 mph - N/A   Overcast